Iridium Next SV173

operational
NORAD ID: 43925 Int'l Des: 2019-002 Owner: IRIDS Country: US Constellation: Iridium NEXT
LEOCIRCULARPOLAR

About Iridium Next SV173

Description loading...

Live Position

Loading 3D Globe...

Upcoming Passes

Altitude History

Altitude vs Time

uPlot chart will show altitude changes over time

Two-Line Element Set

1 43925U 19002D 25303.92734826 .00000327 00000-0 10986-3 0 9998
2 43925 86.3930 89.4106 0002155 87.5371 272.6071 14.34218441356096
Epoch: Oct 30, 2025 • Age: 9 hours

Current Status

Altitude 789.1 km
Velocity 7.46 km/s
Sub-Earth Point -28.19°S, 117.38°E
Launch Date Jan 11, 2019
Age 6.8 years
Type communications

Technical Details

Classification Payload
Mass 860.00 kg
Dry Mass 700.00 kg
Total Mass 860.00 kg
Length 3.10 m
Diameter 1.50 m
Span 9.40 m
Shape Half Hex Prism+2 pan
Manufacturer NGISGA
Bus Type EliteBus
Phase Status In Orbit
Owner/State IRIDS/US

Large Constellations

Loading constellations...